DW4395 Weather Reports


time (UTC)temp
C
wind
direction
speed
KPH
gust
KPH
rain 1hr
cm
rain 24hr
cm
rain mn
cm
humidity
%
barometer
mb
20260505041520 21 0.0 1.6 0.00 0.79 0.36 53 1018.7
20260505040522 21 0.0 1.6 0.00 0.79 0.36 53 1018.8
20260505035521 21 0.0 1.6 0.00 0.79 0.36 52 1018.8
20260505034522 21 0.0 3.2 0.00 0.79 0.36 50 1019.0
20260505033702 21 248 1.6 3.2 0.00 0.79 0.36 52 1019.0
20260505032701 21 248 1.6 3.2 0.00 0.79 0.36 51 1019.0
20260505031520 21 0.0 1.6 0.00 0.79 0.36 55 1018.9
20260505030521 21 0.0 1.6 0.00 0.79 0.36 51 1019.3
20260505025522 21 0.0 3.2 0.00 0.79 0.36 58 1019.2
20260505024521 21 0.0 3.2 0.00 0.79 0.36 59 1019.3
20260505023521 20 0.0 3.2 0.00 0.79 0.36 64 1019.6
20260505022843 20 0.0 1.6 0.00 0.79 0.36 62 1019.8
20260505021522 21 0.0 1.6 0.00 0.79 0.36 62 1020.0
20260505020703 21 0.0 1.6 0.00 0.79 0.36 62 1020.4
20260505015521 21 0.0 1.6 0.00 0.79 0.36 62 1020.5
20260505014521 20 0.0 0.0 0.00 0.79 0.36 61 1020.5
20260505013522 20 0.0 0.0 0.00 0.79 0.36 66 1020.7
20260505012522 20 0.0 0.0 0.00 0.79 0.36 63 1020.9
20260505011701 20 0.0 0.0 0.00 0.79 0.36 61 1020.9
20260505010521 20 0.0 0.0 0.00 0.79 0.36 64 1020.9
20260505005522 20 0.0 0.0 0.00 0.79 0.36 70 1021.0
20260505004524 20 0.0 0.0 0.00 0.79 0.36 73 1021.2
20260505003521 19 0.0 0.0 0.00 0.79 0.36 75 1021.3
20260505002521 18 0.0 0.0 0.00 0.79 0.36 78 1021.2
20260505001521 18 0.0 0.0 0.00 0.79 0.36 84 1021.3
20260505000521 18 0.0 0.0 0.00 0.79 0.36 87 1021.3
20260504235521 17 0.0 0.0 0.00 0.79 0.36 90 1021.2
20260504234523 17 0.0 0.0 0.00 0.79 0.36 94 1021.1
20260504233703 16 0.0 0.0 0.00 0.79 0.36 95 1021.2
20260504232520 16 0.0 0.0 0.00 0.79 0.36 97 1021.0
20260504231521 16 0.0 0.0 0.00 0.79 0.36 98 1020.9
20260504230523 16 0.0 0.0 0.00 0.79 0.36 98 1020.7
20260504225521 16 0.0 0.0 0.00 0.79 0.36 98 1020.9
20260504224521 16 0.0 0.0 0.00 0.79 0.36 98 1020.8
20260504223521 15 0.0 0.0 0.00 0.79 0.36 98 1020.6
20260504222521 15 0.0 0.0 0.00 0.79 0.36 98 1020.7
20260504221522 15 0.0 0.0 0.00 0.79 0.36 98 1020.5
20260504220521 15 0.0 0.0 0.00 0.79 0.36 98 1020.2
20260504215522 15 0.0 0.0 0.00 0.79 0.36 99 1020.1
20260504214521 15 0.0 0.0 0.00 0.79 0.36 99 1019.8
20260504213521 15 0.0 0.0 0.00 0.79 0.36 99 1019.7
20260504212521 15 0.0 0.0 0.00 0.79 0.36 99 1019.5
20260504211524 15 0.0 0.0 0.00 0.79 0.36 99 1019.4
20260504210521 15 0.0 0.0 0.00 0.79 0.36 99 1019.0
20260504205521 15 0.0 0.0 0.00 0.79 0.36 99 1019.1
20260504204521 15 0.0 0.0 0.00 0.79 0.36 98 1018.8
20260504203702 15 0.0 0.0 0.00 0.79 0.36 98 1018.7
20260504202521 15 0.0 0.0 0.00 0.79 0.36 98 1018.6
20260504201521 15 0.0 0.0 0.00 0.79 0.36 98 1018.7
20260504200520 15 0.0 0.0 0.00 0.79 0.36 98 1018.6
20260504195702 16 0.0 0.0 0.00 0.79 0.36 98 1018.3
20260504194520 16 0.0 0.0 0.00 0.79 0.36 98 1018.5
20260504193522 16 0.0 0.0 0.00 0.79 0.36 99 1018.3
20260504192521 16 0.0 0.0 0.00 0.79 0.36 98 1018.3
20260504191522 16 0.0 0.0 0.00 0.79 0.36 99 1018.3
20260504190522 16 0.0 0.0 0.00 0.79 0.36 99 1018.2
20260504185521 16 0.0 0.0 0.00 0.79 0.36 98 1018.4
20260504184521 16 0.0 0.0 0.00 0.79 0.36 98 1018.3
20260504183701 16 0.0 0.0 0.00 0.79 0.36 98 1018.3
20260504182522 16 0.0 0.0 0.00 0.79 0.36 98 1018.2
20260504181842 16 0.0 0.0 0.00 0.79 0.36 98 1018.1
20260504180701 16 0.0 0.0 0.00 0.79 0.36 98 1018.1
20260504175521 16 0.0 0.0 0.00 0.79 0.36 98 1018.0
20260504174521 16 0.0 0.0 0.00 0.79 0.36 98 1017.8
20260504173522 16 0.0 0.0 0.00 0.79 0.36 98 1017.7
20260504172521 16 0.0 0.0 0.00 0.79 0.36 98 1017.8
20260504171701 16 0.0 0.0 0.00 0.79 0.36 98 1017.7
20260504170521 16 0.0 0.0 0.00 0.79 0.36 98 1017.6
20260504150521 17 0.0 0.0 0.08 0.51 0.08 97 1018.7
20260504140520 16 0.0 0.0 0.00 0.43 0.00 97 1017.9
20260504130701 17 0.0 0.0 0.03 0.43 0.43 97 1017.7
20260504110521 17 0.0 0.0 0.00 0.41 0.41 96 1018.1
20260504100521 17 0.0 0.0 0.08 0.41 0.41 95 1018.1
20260504081522 18 0.0 0.0 0.05 0.30 0.30 93 1017.4
20260504080523 18 0.0 0.0 0.08 0.30 0.30 93 1017.4
20260504050522 21 0.0 0.0 0.05 0.05 0.05 84 1016.7
20260504045523 21 0.0 0.0 0.05 0.05 0.05 82 1016.6